Flag for Belgium Weather past 2 weeks in Mons, Belgium

Now
50 °F

Cool.


Feels Like: 46 °F
Forecast: 50 / 66 °F
Wind: 10 mph from Southwest

Location: Chievres

Current Time: Jul 29, 2015 at 3:26:57 AM

Latest Report: Jul 29, 2015 at 2:55 AM


Visibility: N/A

Pressure: 29.80 "Hg

Humidity: 94%

Dew point: 48 °F

Location of MonsLocation

Historic Weather in Mons — Graph

°F

Mons temperature yesterday

Maximum temperature yesterday: 64 °F (at 12:25 PM)
Minimum temperature yesterday: 52 °F (at 11:55 PM)
Average temperature yesterday: 60 °F

Past Weeks' High & Low Weather Summary

 TemperatureHumidityPressure
High84 °F (Jul 16, 4:25 PM)100% (Jul 14, 5:55 AM)30.15 "Hg (Jul 14, 5:55 AM)
Low48 °F (Jul 26, 5:55 AM)34% (Jul 24, 3:55 PM)29.50 "Hg (Jul 25, 4:25 AM)
Average65 °F76%29.92 "Hg
* Reported Jul 14 1:25 AM — Jul 29 1:55 AM, Mons, Weather by CustomWeather, © 2015

Note: Actual official high and low records may vary slightly from our data, if they occured in-between our weather recording intervals... More about our weather records

Advertising

Mons weather history for previous 24 hours

 ConditionsComfort  
Time TempWeatherWind HumidityBarometerVisibility
1:55 AM
Wed, Jul 29
52 °FCool.9 mph88%29.83 "HgN/A
1:25 AM52 °FCool.10 mph88%29.83 "HgN/A
12:55 AM52 °FCool.9 mph88%29.83 "HgN/A
11:55 PM
Tue, Jul 28
52 °FCool.8 mph82%29.83 "HgN/A
10:55 PM54 °FCool.7 mph77%29.83 "HgN/A
10:25 PM54 °FCool.8 mph77%29.83 "HgN/A
9:55 PM55 °FCool.9 mph67%29.80 "HgN/A
9:25 PM57 °FCool.9 mph63%29.80 "HgN/A
8:55 PM59 °FRefreshingly cool.13 mph59%29.80 "HgN/A
8:25 PM61 °FRefreshingly cool.15 mph52%29.80 "HgN/A
7:55 PM63 °FPassing clouds.17 mph49%29.80 "HgN/A
7:25 PM63 °FMild.16 mph52%29.80 "HgN/A
6:55 PM63 °FPartly sunny.16 mph52%29.80 "HgN/A
6:25 PM63 °FPartly sunny.15 mph56%29.80 "HgN/A
5:55 PM63 °FPartly sunny.16 mph52%29.80 "HgN/A
5:25 PM64 °FScattered clouds.18 mph49%29.80 "HgN/A
4:55 PM64 °FPartly sunny.18 mph49%29.80 "HgN/A
4:25 PM64 °FScattered clouds.21 mph49%29.77 "HgN/A
3:55 PM63 °FPassing clouds.18 mph56%29.77 "HgN/A
3:25 PM63 °FPartly sunny.16 mph56%29.77 "HgN/A
2:55 PM63 °FOvercast.15 mph59%29.77 "HgN/A
2:25 PM63 °FOvercast.18 mph56%29.77 "HgN/A
1:55 PM63 °FOvercast.15 mph56%29.77 "HgN/A
1:25 PM63 °FPartly sunny.17 mph59%29.77 "HgN/A
12:55 PM64 °FPartly sunny.21 mph56%29.77 "HgN/A
12:25 PM64 °FPartly sunny.21 mph56%29.77 "HgN/A
11:55 AM61 °FPartly sunny.17 mph68%29.77 "HgN/A
11:25 AM61 °FPartly sunny.17 mph68%29.77 "HgN/A
10:55 AM61 °FPartly sunny.18 mph68%29.74 "HgN/A
10:25 AM61 °FPartly sunny.18 mph68%29.74 "HgN/A
9:55 AM59 °FBroken clouds.21 mph72%29.74 "HgN/A
9:25 AM59 °FBroken clouds.17 mph77%29.74 "HgN/A
9:03 AM59 °FBroken clouds.17 mph72%29.74 "HgN/A
8:55 AM59 °FPartly sunny.18 mph72%29.74 "HgN/A
8:25 AM59 °FPartly sunny.15 mph72%29.74 "HgN/A
7:55 AM59 °FPartly sunny.16 mph72%29.74 "HgN/A
7:25 AM57 °FOvercast.14 mph77%29.74 "HgN/A
6:55 AM57 °FPassing clouds.12 mph77%29.71 "HgN/A
6:25 AM57 °FPassing clouds.15 mph77%29.71 "HgN/A
5:55 AM57 °FOvercast.18 mph72%29.71 "HgN/A
5:25 AM57 °FOvercast.15 mph77%29.71 "HgN/A
4:55 AM57 °FOvercast.17 mph77%29.71 "HgN/A
4:25 AM57 °FOvercast.17 mph72%29.71 "HgN/A
3:55 AM57 °FPassing clouds.15 mph77%29.71 "HgN/A
3:25 AM57 °FOvercast.14 mph72%29.71 "HgN/A
Weather by CustomWeather, © 2015

See weather overviewHow to use our weather pages